FENGYUN 1C DEB, 29888

Orbit data source: Space-Track

FENGYUN 1C DEB, 29888 is space debris in SSO originally from a launch on Mon, 10 May 1999 UTC launched from the Taiyaun Space Center, China (TSC). Fengyun 1C debris stems from the Chinese weather satellite Fengyun-1C, which was intentionally destroyed by a Chinese anti-satellite missile in 2007. This event dramatically increased the amount of space debris, with thousands of trackable fragments posing hazards to satellites and human spaceflight. The Fengyun 1C debris cloud has become a focal point in discussions about space sustainability and the need for international regulations to prevent the creation of new debris.

Loading next visibility...
Identifier
29888, 1999-025GJ
Orbit
SSO
Country
Flag of CNCN / PRC
Related business
Manufacturer
Unknown
Mission
Spacecraft
Bus & Motor
Unknown
Mass
Unknown
Launch date (UTC)
1999-05-10 (27 years ago)
Launch vehicle
Unknown
Launch site
Taiyaun Space Center, China (TSC)
Object type
Payload
Rocket body
Debris
Shape & HBR
Unknown shape, 0.1 m
Radar Cross Section
Medium (>0.1 m² and <1 m²)

Expand to show TLE details & history
Last TLE update: 17 hours ago

TLE from 17 hours ago
0 FENGYUN 1C DEB
1 29888U 99025GJ  26166.83922101  .00000882  00000-0  30153-3 0  9990
2 29888  99.1835  11.9583 0272059 218.6045 139.5401 14.20418505  1295
Epoch: 2026-06-15T20:08Z
TLE epoch observation values (Epoch: 2026-06-15T20:08:28.695Z)
Latitude
0.00001°
Longitude
165.71889°
Altitude
978.126 km
Speed
7.285 km/s
True Right ascension
00h 47m 49s
True Declination
0° 00' 00"
Sunlit
Object was in daylight at epoch
Visualization orbit readout
Latitude
Unknown
Longitude
Unknown
Altitude
Unknown
Speed
Unknown
Apparent Right ascension
Unknown
Apparent Declination
Unknown
Sunlit
N/A
Visualization observer readout
Local Sidereal Time
23:49:01
Azimuth
Unknown
Elevation
Unknown
Doppler factor
Unknown
Orbital elements
Apogee altitude
1,016.978 km
Perigee altitude
625.254 km
Semi-major axis
7,199.253 km
Eccentricity
0.02721
Inclination
99.1835°
RAAN
11.9583°
Arg. of periapsis
218.6045°
True anomaly
141.51167°
Mean anomaly
139.5401°
Eccentric anomaly
140.53096°
Mean motion
3.55314 °/min
Orbital period
101.32 mins
BSTAR
0.00030153
Loading maneuver chart data...
Computing Atmospheric mass density...

Documentation

Showing up to 5 results
|